| time (UTC) | temp C | wind direction | speed KPH | gust KPH | rain 1hr cm | rain 24hr cm | rain mn cm | humidity % | barometer mb |
| 20260506204056 | 10 | 0.0 | 3.2 | 0.00 | 0.03 | 0.03 | 61 | 1014.5 | |
| 20260506203051 | 10 | 0 | 0.0 | 3.2 | 0.00 | 0.03 | 0.03 | 61 | 1014.5 |
| 20260506202107 | 10 | 0.0 | 0.0 | 0.00 | 0.03 | 0.03 | 60 | 1014.5 | |
| 20260506201105 | 11 | 348 | 0.0 | 3.2 | 0.00 | 0.03 | 0.03 | 60 | 1014.5 |
| 20260506200039 | 11 | 0.0 | 3.2 | 0.00 | 0.03 | 0.03 | 59 | 1014.4 | |
| 20260506195036 | 11 | 23 | 0.0 | 3.2 | 0.00 | 0.03 | 0.03 | 59 | 1014.4 |
| 20260506194034 | 11 | 0.0 | 1.6 | 0.00 | 0.03 | 0.03 | 58 | 1014.2 | |
| 20260506193028 | 11 | 0.0 | 1.6 | 0.00 | 0.03 | 0.03 | 58 | 1014.1 | |
| 20260506192025 | 11 | 0.0 | 0.0 | 0.00 | 0.03 | 0.03 | 57 | 1014.0 | |
| 20260506191021 | 11 | 90 | 0.0 | 6.4 | 0.00 | 0.03 | 0.03 | 55 | 1013.8 |
| 20260506190114 | 11 | 90 | 0.0 | 3.2 | 0.00 | 0.03 | 0.03 | 54 | 1013.8 |
| 20260506185212 | 11 | 180 | 0.0 | 4.8 | 0.00 | 0.03 | 0.03 | 53 | 1013.7 |
| 20260506184107 | 11 | 81 | 1.6 | 4.8 | 0.00 | 0.03 | 0.03 | 54 | 1013.6 |
| 20260506183103 | 11 | 71 | 1.6 | 8.0 | 0.00 | 0.03 | 0.03 | 54 | 1013.5 |
| 20260506182101 | 11 | 68 | 1.6 | 4.8 | 0.00 | 0.03 | 0.03 | 55 | 1013.4 |
| 20260506181056 | 11 | 323 | 1.6 | 6.4 | 0.00 | 0.03 | 0.03 | 55 | 1013.2 |
| 20260506180052 | 11 | 292 | 1.6 | 6.4 | 0.00 | 0.03 | 0.03 | 55 | 1013.1 |
| 20260506175048 | 11 | 313 | 0.0 | 4.8 | 0.00 | 0.03 | 0.03 | 54 | 1013.0 |
| 20260506174045 | 11 | 78 | 1.6 | 8.0 | 0.00 | 0.03 | 0.03 | 53 | 1013.0 |
| 20260506173044 | 11 | 82 | 3.2 | 12.9 | 0.00 | 0.03 | 0.03 | 52 | 1012.9 |
| 20260506172059 | 12 | 19 | 3.2 | 11.3 | 0.00 | 0.03 | 0.03 | 50 | 1012.8 |
| 20260506171035 | 12 | 225 | 6.4 | 12.9 | 0.00 | 0.03 | 0.03 | 45 | 1012.6 |
| 20260506170031 | 12 | 248 | 4.8 | 16.1 | 0.00 | 0.03 | 0.03 | 45 | 1012.5 |
| 20260506165028 | 13 | 354 | 1.6 | 9.7 | 0.00 | 0.03 | 0.03 | 44 | 1012.4 |
| 20260506164024 | 13 | 14 | 3.2 | 11.3 | 0.00 | 0.03 | 0.03 | 42 | 1012.2 |
| 20260506163020 | 13 | 111 | 1.6 | 6.4 | 0.00 | 0.03 | 0.03 | 41 | 1012.1 |
| 20260506162015 | 13 | 82 | 4.8 | 11.3 | 0.00 | 0.03 | 0.03 | 39 | 1012.0 |
| 20260506161111 | 14 | 118 | 3.2 | 6.4 | 0.00 | 0.03 | 0.03 | 38 | 1012.0 |
| 20260506160107 | 14 | 357 | 3.2 | 12.9 | 0.00 | 0.03 | 0.03 | 37 | 1012.0 |
| 20260506155103 | 15 | 29 | 4.8 | 14.5 | 0.00 | 0.03 | 0.03 | 35 | 1012.0 |
| 20260506154100 | 15 | 225 | 1.6 | 8.0 | 0.00 | 0.03 | 0.03 | 36 | 1012.0 |
| 20260506153056 | 15 | 334 | 3.2 | 17.7 | 0.00 | 0.03 | 0.03 | 33 | 1012.0 |
| 20260506152052 | 15 | 333 | 3.2 | 14.5 | 0.00 | 0.03 | 0.03 | 32 | 1011.9 |
| 20260506151048 | 16 | 195 | 6.4 | 12.9 | 0.00 | 0.03 | 0.03 | 32 | 1011.7 |
| 20260506145037 | 15 | 84 | 6.4 | 12.9 | 0.00 | 0.03 | 0.03 | 34 | 1011.6 |
| 20260506144035 | 15 | 331 | 3.2 | 11.3 | 0.00 | 0.03 | 0.03 | 36 | 1011.7 |
| 20260506143051 | 15 | 326 | 3.2 | 12.9 | 0.00 | 0.03 | 0.03 | 37 | 1011.8 |
| 20260506142028 | 16 | 70 | 6.4 | 17.7 | 0.00 | 0.03 | 0.03 | 35 | 1011.7 |
| 20260506141022 | 16 | 75 | 3.2 | 16.1 | 0.00 | 0.03 | 0.03 | 37 | 1011.7 |
| 20260506140019 | 16 | 33 | 3.2 | 8.0 | 0.00 | 0.03 | 0.03 | 38 | 1011.6 |
| 20260506135035 | 15 | 64 | 4.8 | 14.5 | 0.00 | 0.03 | 0.03 | 37 | 1011.6 |
| 20260506134221 | 15 | 75 | 4.8 | 12.9 | 0.00 | 0.03 | 0.03 | 38 | 1011.6 |
| 20260506133108 | 15 | 82 | 6.4 | 12.9 | 0.00 | 0.03 | 0.03 | 36 | 1011.5 |
| 20260506132104 | 16 | 86 | 3.2 | 11.3 | 0.00 | 0.03 | 0.03 | 34 | 1011.4 |
| 20260506131100 | 16 | 79 | 3.2 | 9.7 | 0.00 | 0.03 | 0.03 | 33 | 1011.4 |
| 20260506130057 | 16 | 94 | 3.2 | 12.9 | 0.00 | 0.03 | 0.03 | 32 | 1011.3 |
| 20260506125054 | 16 | 84 | 4.8 | 12.9 | 0.00 | 0.03 | 0.03 | 33 | 1011.3 |
| 20260506124051 | 16 | 115 | 3.2 | 12.9 | 0.00 | 0.03 | 0.03 | 35 | 1011.2 |
| 20260506123106 | 16 | 43 | 6.4 | 16.1 | 0.00 | 0.03 | 0.03 | 35 | 1011.2 |
| 20260506122044 | 16 | 45 | 4.8 | 12.9 | 0.00 | 0.03 | 0.03 | 38 | 1011.2 |
| 20260506121040 | 16 | 60 | 3.2 | 9.7 | 0.00 | 0.03 | 0.03 | 39 | 1011.1 |
| 20260506120035 | 16 | 101 | 3.2 | 12.9 | 0.00 | 0.03 | 0.03 | 40 | 1011.1 |
| 20260506115032 | 15 | 74 | 4.8 | 12.9 | 0.00 | 0.03 | 0.03 | 41 | 1011.0 |
| 20260506113023 | 15 | 293 | 3.2 | 14.5 | 0.00 | 0.03 | 0.03 | 46 | 1011.1 |
| 20260506112020 | 15 | 113 | 3.2 | 11.3 | 0.00 | 0.03 | 0.03 | 49 | 1011.2 |
| 20260506111016 | 15 | 321 | 1.6 | 8.0 | 0.00 | 0.03 | 0.03 | 50 | 1011.2 |
| 20260506110113 | 15 | 49 | 3.2 | 9.7 | 0.00 | 0.03 | 0.03 | 51 | 1011.3 |
| 20260506105107 | 15 | 21 | 3.2 | 12.9 | 0.00 | 0.03 | 0.03 | 52 | 1011.3 |
| 20260506104124 | 13 | 352 | 3.2 | 14.5 | 0.00 | 0.03 | 0.03 | 54 | 1011.1 |
| 20260506103058 | 14 | 57 | 3.2 | 14.5 | 0.00 | 0.03 | 0.03 | 57 | 1011.1 |
| 20260506102056 | 14 | 146 | 1.6 | 4.8 | 0.00 | 0.03 | 0.03 | 62 | 1011.1 |
| 20260506101051 | 14 | 114 | 1.6 | 4.8 | 0.00 | 0.03 | 0.03 | 62 | 1011.0 |
| 20260506100047 | 14 | 324 | 1.6 | 8.0 | 0.00 | 0.03 | 0.03 | 62 | 1011.0 |
| 20260506095043 | 14 | 345 | 3.2 | 12.9 | 0.00 | 0.03 | 0.03 | 65 | 1011.1 |
| 20260506094040 | 14 | 91 | 1.6 | 8.0 | 0.00 | 0.03 | 0.03 | 68 | 1011.0 |
| 20260506093036 | 13 | 9 | 1.6 | 8.0 | 0.00 | 0.03 | 0.03 | 70 | 1011.0 |
| 20260506092032 | 13 | 343 | 4.8 | 11.3 | 0.00 | 0.03 | 0.03 | 70 | 1010.9 |
| 20260506091028 | 13 | 316 | 0.0 | 4.8 | 0.00 | 0.03 | 0.03 | 74 | 1010.8 |
| 20260506090025 | 13 | 326 | 1.6 | 9.7 | 0.00 | 0.03 | 0.03 | 74 | 1010.9 |
| 20260506085021 | 13 | 320 | 1.6 | 6.4 | 0.00 | 0.03 | 0.03 | 78 | 1010.8 |
| 20260506084037 | 12 | 341 | 1.6 | 6.4 | 0.00 | 0.03 | 0.03 | 83 | 1010.8 |
| 20260506083113 | 12 | 304 | 0.0 | 4.8 | 0.00 | 0.03 | 0.03 | 88 | 1010.7 |
| 20260506082110 | 11 | 337 | 3.2 | 6.4 | 0.00 | 0.03 | 0.03 | 92 | 1010.7 |
| 20260506081106 | 11 | 342 | 1.6 | 6.4 | 0.00 | 0.03 | 0.03 | 94 | 1010.8 |
| 20260506080105 | 11 | 360 | 1.6 | 8.0 | 0.00 | 0.03 | 0.03 | 96 | 1010.8 |
| 20260506073051 | 10 | 318 | 3.2 | 6.4 | 0.03 | 0.03 | 0.03 | 99 | 1010.7 |
| 20260506072107 | 10 | 298 | 0.0 | 3.2 | 0.03 | 0.03 | 0.03 | 99 | 1010.8 |
| 20260506071043 | 10 | 108 | 0.0 | 3.2 | 0.03 | 0.03 | 0.03 | 99 | 1010.7 |
| 20260506062023 | 8 | 121 | 1.6 | 6.4 | 0.00 | 0.00 | 0.00 | 97 | 1010.5 |
| 20260506061017 | 8 | 301 | 3.2 | 6.4 | 0.00 | 0.00 | 0.00 | 97 | 1010.4 |
| 20260506060114 | 8 | 79 | 1.6 | 11.3 | 0.00 | 0.00 | 0.00 | 96 | 1010.4 |
| 20260506051055 | 8 | 349 | 3.2 | 9.7 | 0.00 | 0.00 | 0.00 | 95 | 1010.4 |
| 20260506045049 | 8 | 330 | 3.2 | 9.7 | 0.00 | 0.00 | 0.00 | 93 | 1010.3 |
| 20260506044106 | 8 | 273 | 1.6 | 9.7 | 0.00 | 0.00 | 0.00 | 93 | 1010.3 |
| 20260506043041 | 8 | 338 | 1.6 | 6.4 | 0.00 | 0.00 | 0.00 | 92 | 1010.3 |
| 20260506042039 | 8 | 79 | 1.6 | 8.0 | 0.00 | 0.00 | 0.00 | 91 | 1010.2 |
| 20260506041033 | 8 | 197 | 0.0 | 6.4 | 0.00 | 0.00 | 0.00 | 91 | 1010.2 |
| 20260506040031 | 8 | 315 | 1.6 | 9.7 | 0.00 | 0.00 | 0.00 | 89 | 1010.3 |
| 20260506035028 | 8 | 315 | 3.2 | 11.3 | 0.00 | 0.00 | 0.00 | 89 | 1010.4 |
| 20260506034022 | 8 | 335 | 3.2 | 11.3 | 0.00 | 0.00 | 0.00 | 88 | 1010.4 |
| 20260506033019 | 8 | 351 | 3.2 | 9.7 | 0.00 | 0.00 | 0.00 | 87 | 1010.5 |
| 20260506032057 | 8 | 338 | 0.0 | 3.2 | 0.00 | 0.00 | 0.00 | 86 | 1010.5 |
| 20260506031112 | 8 | 23 | 0.0 | 6.4 | 0.00 | 0.00 | 0.00 | 85 | 1010.5 |
| 20260506030108 | 8 | 353 | 1.6 | 6.4 | 0.00 | 0.00 | 0.00 | 85 | 1010.6 |
| 20260506025104 | 8 | 16 | 3.2 | 8.0 | 0.00 | 0.00 | 0.00 | 84 | 1010.6 |
| 20260506024101 | 9 | 327 | 1.6 | 6.4 | 0.00 | 0.00 | 0.00 | 82 | 1010.6 |
| 20260506023057 | 9 | 312 | 1.6 | 9.7 | 0.00 | 0.00 | 0.00 | 81 | 1010.6 |
| 20260506022054 | 9 | 326 | 4.8 | 16.1 | 0.00 | 0.00 | 0.00 | 81 | 1010.8 |
| 20260506021049 | 9 | 349 | 0.0 | 4.8 | 0.00 | 0.00 | 0.00 | 80 | 1010.8 |
| 20260506020045 | 9 | 332 | 1.6 | 6.4 | 0.00 | 0.00 | 0.00 | 79 | 1010.7 |
| 20260506015043 | 9 | 82 | 1.6 | 6.4 | 0.00 | 0.00 | 0.00 | 79 | 1010.7 |
| 20260506014058 | 10 | 282 | 1.6 | 4.8 | 0.00 | 0.00 | 0.00 | 78 | 1010.7 |
| 20260506013034 | 10 | 352 | 1.6 | 8.0 | 0.00 | 0.00 | 0.00 | 77 | 1010.8 |
| 20260506012030 | 10 | 338 | 0.0 | 4.8 | 0.00 | 0.00 | 0.00 | 77 | 1010.8 |
| 20260506011027 | 10 | 50 | 1.6 | 6.4 | 0.00 | 0.00 | 0.00 | 77 | 1010.8 |
| 20260506010023 | 10 | 247 | 4.8 | 14.5 | 0.00 | 0.00 | 0.00 | 77 | 1010.8 |
| 20260506005021 | 10 | 356 | 1.6 | 6.4 | 0.00 | 0.00 | 0.00 | 76 | 1011.0 |
| 20260506004017 | 10 | 8 | 1.6 | 6.4 | 0.00 | 0.00 | 0.00 | 76 | 1011.0 |
| 20260506003112 | 10 | 4 | 3.2 | 12.9 | 0.00 | 0.00 | 0.00 | 76 | 1011.1 |
| 20260506002108 | 10 | 286 | 1.6 | 11.3 | 0.00 | 0.00 | 0.00 | 77 | 1011.1 |
| 20260506001105 | 10 | 285 | 1.6 | 3.2 | 0.00 | 0.00 | 0.00 | 77 | 1011.2 |
| 20260505235057 | 10 | 110 | 1.6 | 6.4 | 0.00 | 0.03 | 0.00 | 77 | 1011.3 |
| 20260505234054 | 10 | 351 | 1.6 | 11.3 | 0.00 | 0.03 | 0.00 | 77 | 1011.4 |
| 20260505233050 | 10 | 315 | 1.6 | 8.0 | 0.00 | 0.03 | 0.00 | 76 | 1011.4 |
| 20260505232046 | 10 | 19 | 1.6 | 8.0 | 0.00 | 0.03 | 0.00 | 77 | 1011.4 |
| 20260505231042 | 10 | 95 | 1.6 | 6.4 | 0.00 | 0.03 | 0.00 | 78 | 1011.4 |
| 20260505230039 | 10 | 1 | 1.6 | 6.4 | 0.00 | 0.03 | 0.00 | 79 | 1011.5 |
| 20260505225034 | 10 | 356 | 1.6 | 9.7 | 0.00 | 0.03 | 0.00 | 79 | 1011.6 |
| 20260505224031 | 10 | 309 | 1.6 | 6.4 | 0.00 | 0.03 | 0.00 | 79 | 1011.6 |
| 20260505223048 | 10 | 352 | 1.6 | 12.9 | 0.00 | 0.03 | 0.00 | 80 | 1011.7 |
| 20260505222023 | 10 | 340 | 1.6 | 8.0 | 0.00 | 0.03 | 0.00 | 80 | 1011.6 |
| 20260505221039 | 10 | 293 | 3.2 | 16.1 | 0.00 | 0.05 | 0.00 | 80 | 1011.6 |
| 20260505220015 | 10 | 3 | 1.6 | 11.3 | 0.00 | 0.10 | 0.00 | 80 | 1011.7 |
| 20260505215112 | 10 | 0.0 | 4.8 | 0.00 | 0.15 | 0.13 | 80 | 1011.8 | |
| 20260505214107 | 11 | 340 | 3.2 | 11.3 | 0.00 | 0.23 | 0.13 | 80 | 1011.9 |
| 20260505213103 | 11 | 332 | 3.2 | 9.7 | 0.00 | 0.33 | 0.13 | 80 | 1011.8 |
| 20260505212059 | 11 | 322 | 1.6 | 9.7 | 0.00 | 0.43 | 0.13 | 81 | 1011.8 |
| 20260505211112 | 11 | 314 | 1.6 | 9.7 | 0.00 | 0.53 | 0.13 | 86 | 1011.9 |
| 20260505210050 | 11 | 20 | 3.2 | 9.7 | 0.00 | 0.56 | 0.13 | 89 | 1011.8 |
| 20260505205045 | 11 | 86 | 1.6 | 8.0 | 0.00 | 0.66 | 0.13 | 91 | 1011.8 |